Tracking 19706 objects as of 16-Jun-2019
HD Live streaming from Space Station
objects crossing your sky now

STARLINK OBJ AE

Track STARLINK OBJ AE now!
10-day predictions


NORAD ID: 44263
Int'l Code: 2019-029AE
Perigee: 549.9 km
Apogee: 553.7 km
Inclination: 53.0 °
Period: 95.5 minutes
Semi major axis: 6922 km
RCS: Unknown
Launch date: May 24, 2019
Source: United States (US)
Launch site: AIR FORCE EASTERN TEST RANGE (AFETR)
aabbcc
Your satellite tracking list
Your tracking list is empty




NASA's NSSDC Master Catalog

Two Line Element Set (TLE):
1 44263U 19029AE  19166.30283299 -.00638585  00000-0 -44658-1 0  9994
2 44263  53.0006  72.2933 0002765  87.9246 272.2059 15.07240965  3499
Source of the keplerian elements: AFSPC